This demonstration page uses our WeatherBlox Daily Observations layout. Learn more.

Left ArrowRight Arrow

Hourly Observations for March 30, 2018

Temp ( °F °C ) Dew Point ( °F °C ) Humidity (%) Winds ( mph kmh ) Pressure ( in mb ) Visibility ( mi km ) Precip ( " mm )
12:15 am 00:15 Clear 72 22 55 13 57 57 SW 15 24 29.74 1007 10 16 N/A
12:35 am 00:35 Clear 72 22 55 13 57 57 SW 14 22 29.77 1008 10 16 N/A
12:55 am 00:55 Partly Cloudy 72 22 54 12 53 53 SW 10 17 29.77 1008 10 16 N/A
1:15 am 01:15 Mostly Cloudy 72 22 54 12 53 53 SW 8 13 29.77 1008 10 16 N/A
1:35 am 01:35 Cloudy 70 21 55 13 60 60 NW 9 15 29.77 1008 10 16 N/A
1:55 am 01:55 Cloudy 70 21 55 13 60 60 NW 9 15 29.77 1008 10 16 N/A
2:15 am 02:15 Cloudy 68 20 57 14 69 69 N N/A 29.77 1008 10 16 N/A
2:35 am 02:35 Cloudy 68 20 57 14 69 69 N N/A 29.77 1008 10 16 N/A
2:55 am 02:55 Cloudy 66 19 55 13 68 68 SW 3 6 29.77 1008 10 16 N/A
3:15 am 03:15 Cloudy 68 20 55 13 64 64 S 9 15 29.74 1007 10 16 N/A
3:35 am 03:35 Cloudy 68 20 55 13 64 64 SSW 10 17 29.74 1007 10 16 N/A
3:55 am 03:55 Cloudy 68 20 55 13 64 64 SSW 10 17 29.74 1007 10 16 N/A
4:15 am 04:15 Cloudy 68 20 55 13 64 64 SSW 12 19 29.71 1006 10 16 N/A
4:35 am 04:35 Cloudy 68 20 55 13 64 64 SSW 13 20 29.71 1006 10 16 N/A
4:55 am 04:55 Cloudy 68 20 57 14 69 69 SSW 14 22 29.71 1006 10 16 N/A
5:15 am 05:15 Cloudy 68 20 57 14 69 69 SSW 13 20 29.71 1006 10 16 N/A
5:35 am 05:35 Cloudy 68 20 59 15 73 73 SSW 16 26 29.71 1006 10 16 N/A
5:55 am 05:55 Cloudy 68 20 59 15 73 73 SSW 14 22 29.71 1006 10 16 N/A
6:15 am 06:15 Partly Cloudy 68 20 59 15 73 73 SSW 9 15 29.71 1006 10 16 N/A
6:35 am 06:35 Mostly Cloudy 66 19 59 15 78 78 SW 9 15 29.71 1006 10 16 N/A
6:55 am 06:55 Partly Cloudy 66 19 59 15 78 78 SSW 9 15 29.71 1006 10 16 N/A
7:15 am 07:15 Sunny 64 18 59 15 83 83 SSW 10 17 29.74 1007 10 16 N/A
7:35 am 07:35 Mostly Cloudy 66 19 59 15 78 78 SW 9 15 29.74 1007 10 16 N/A
7:55 am 07:55 Cloudy 66 19 59 15 78 78 SW 7 11 29.74 1007 10 16 N/A
8:15 am 08:15 Cloudy 66 19 59 15 78 78 W 8 13 29.77 1008 10 16 N/A
8:35 am 08:35 Cloudy 66 19 59 15 78 78 W 7 11 29.77 1008 10 16 N/A
8:55 am 08:55 Cloudy 68 20 59 15 73 73 WSW 6 9 29.77 1008 10 16 N/A
9:15 am 09:15 Cloudy 68 20 59 15 73 73 SW 7 11 29.74 1007 10 16 N/A
9:35 am 09:35 Partly Cloudy 70 21 61 16 73 73 SW 7 11 29.74 1007 10 16 N/A
9:55 am 09:55 Sunny 70 21 61 16 73 73 SSW 10 17 29.74 1007 10 16 N/A
10:15 am 10:15 Sunny 70 21 61 16 73 73 SSW 7 11 29.77 1008 10 16 N/A
10:35 am 10:35 Partly Cloudy 72 22 59 15 65 65 SSW 3 6 29.74 1007 10 16 N/A
10:55 am 10:55 Cloudy 72 22 59 15 65 65 SSW 10 17 29.74 1007 10 16 N/A
11:15 am 11:15 Cloudy 72 22 59 15 65 65 S 9 15 29.74 1007 10 16 N/A
11:35 am 11:35 Cloudy 72 22 61 16 69 69 NNW 15 24 29.77 1008 10 16 N/A
11:55 am 11:55 Cloudy with Light Rain 59 15 55 13 88 88 NNW 16 26 29.80 1009 7 11 0.01 0.25
12:15 pm 12:15 Cloudy 57 14 54 12 88 88 NNW 16 26 29.80 1009 10 16 N/A
12:35 pm 12:35 Mostly Cloudy 57 14 54 12 88 88 NNW 22 35 29.80 1009 10 16 N/A
12:55 pm 12:55 Mostly Cloudy 57 14 52 11 82 82 NNW 20 31 29.83 1010 10 16 N/A
1:15 pm 13:15 Cloudy 59 15 50 10 72 72 NNW 21 33 29.83 1010 10 16 N/A
1:35 pm 13:35 Cloudy 59 15 50 10 72 72 NNW 24 39 29.83 1010 10 16 N/A
1:55 pm 13:55 Cloudy 59 15 50 10 72 72 NNW 24 39 29.85 1011 10 16 N/A
2:15 pm 14:15 Cloudy 59 15 48 9 68 68 NNW 24 39 29.85 1011 10 16 N/A
2:35 pm 14:35 Cloudy 55 13 46 8 72 72 NNW 14 22 29.85 1011 10 16 N/A
2:55 pm 14:55 Cloudy 55 13 45 7 67 67 N 21 33 29.88 1012 10 16 N/A
3:15 pm 15:15 Cloudy 54 12 45 7 72 72 NNW 23 37 29.88 1012 10 16 N/A
3:35 pm 15:35 Cloudy 54 12 45 7 72 72 N 24 39 29.91 1013 10 16 N/A
3:55 pm 15:55 Cloudy with Light Rain 52 11 43 6 72 72 NNW 25 41 29.94 1014 10 16 N/A
4:15 pm 16:15 Cloudy 52 11 43 6 72 72 NNW 23 37 29.94 1014 10 16 N/A
4:35 pm 16:35 Cloudy 54 12 43 6 67 67 NNW 26 43 29.94 1014 10 16 N/A
4:55 pm 16:55 Cloudy 54 12 41 5 63 63 NNW 23 37 29.94 1014 10 16 N/A
5:15 pm 17:15 Cloudy 54 12 41 5 63 63 NNW 21 33 29.97 1015 10 16 N/A
5:35 pm 17:35 Cloudy 54 12 41 5 63 63 N 17 28 29.97 1015 10 16 N/A
5:55 pm 17:55 Cloudy 54 12 41 5 63 63 NNW 20 31 29.97 1015 10 16 N/A
6:15 pm 18:15 Cloudy 54 12 39 4 58 58 NNW 14 22 30.00 1016 10 16 N/A
6:35 pm 18:35 Partly Cloudy 52 11 37 3 58 58 NNW 14 22 30.00 1016 10 16 N/A
6:55 pm 18:55 Partly Cloudy 52 11 37 3 58 58 NNW 20 31 30.00 1016 10 16 N/A
7:15 pm 19:15 Cloudy 52 11 37 3 58 58 NNW 22 35 30.03 1017 10 16 N/A
7:35 pm 19:35 Partly Cloudy 50 10 36 2 58 58 NNW 18 30 30.03 1017 10 16 N/A
7:55 pm 19:55 Clear 50 10 34 1 54 54 NNW 17 28 30.09 1019 10 16 N/A
8:15 pm 20:15 Clear 48 9 36 2 62 62 N 14 22 30.09 1019 10 16 N/A
8:35 pm 20:35 Clear 46 8 36 2 66 66 NNW 12 19 30.12 1020 10 16 N/A
8:55 pm 20:55 Partly Cloudy 46 8 36 2 66 66 NNW 10 17 30.12 1020 10 16 N/A
9:15 pm 21:15 Partly Cloudy 46 8 36 2 66 66 NNW 15 24 30.15 1021 10 16 N/A
9:35 pm 21:35 Clear 45 7 36 2 71 71 NNW 16 26 30.15 1021 10 16 N/A
9:55 pm 21:55 Clear 46 8 36 2 66 66 NNW 16 26 30.18 1022 10 16 N/A
10:15 pm 22:15 Clear 45 7 36 2 71 71 NW 18 30 30.18 1022 10 16 N/A
10:35 pm 22:35 Clear 45 7 36 2 71 71 NW 12 19 30.18 1022 10 16 N/A
10:55 pm 22:55 Clear 43 6 34 1 71 71 NNW 8 13 30.21 1023 10 16 N/A
11:15 pm 23:15 Clear 43 6 34 1 71 71 NNW 9 15 30.21 1023 10 16 N/A
11:35 pm 23:35 Clear 43 6 34 1 71 71 NW 13 20 30.21 1023 10 16 N/A
11:55 pm 23:55 Clear 43 6 32 undefined 66 66 NNW 13 20 30.24 1024 10 16 N/A

Powered by AerisWeather